Kenosha, WI

6:46 PM CST on February 23, 2017 (GMT -0600)
Kenosha Regional

Weather History for KENW - April, 2014

Change the Weather History Date:

Monday, April 14, 2014

  Actual Average Record
Temperature  
Mean Temperature 36 °F -  
Max Temperature 39 °F 52 °F 84 °F (2003)
Min Temperature 28 °F 36 °F 26 °F (2004)
Degree Days  
Heating Degree Days 29    
Moisture  
Dew Point 32 °F    
Average Humidity 89    
Maximum Humidity 100    
Minimum Humidity 70    
Precipitation  
Precipitation 0.32 in - - ()
Sea Level Pressure  
Sea Level Pressure 29.71 in    
Wind  
Wind Speed 15 mph (NNW)    
Max Wind Speed 21 mph    
Max Gust Speed 36 mph    
Visibility 4 miles    
Events Fog , Rain , Snow    
Averages and records for this station are not official NWS values.
T = Trace of Precipitation, MM = Missing Value Source: NWS Daily Summary

Daily Weather History Graph

Daily Weather History Graph

Search for Another Location

Airport or City:

Trip Planner

Search our weather history database for the weather conditions in past years. The results will help you decide how hot, cold, wet, or windy it might be!

Date:

Astronomy

Apr. 14, 2014 Rise Set
Actual Time 6:12 AM CDT 7:32 PM CDT
Civil Twilight 5:42 AM CDT 8:01 PM CDT
Nautical Twilight 5:07 AM CDT 8:37 PM CDT
Astronomical Twilight 4:30 AM CDT 9:14 PM CDT
Moon 7:10 PM CDT (4/14) 5:45 AM CDT (4/14)
Length of Visible Light 14h 19m
Length of Day
13h 20m
Full, 100% of the Moon is Illuminated
Apr 14
Full
Apr 15
Full
Apr 22
Last Quarter
Apr 29
New
May 6
First Quarter

Hourly Weather History & Observations

Time (CDT) Temp. Windchill Dew Point Humidity Pressure Visibility Wind Dir Wind Speed Gust Speed Precip Events Conditions
12:27 AM 42.1 °F 33.3 °F 41.0 °F 96% 29.45 in 2.5 mi NNE 19.6 mph 25.3 mph N/A   Overcast
12:34 AM 42.1 °F 33.6 °F 41.0 °F 96% 29.45 in 4.0 mi NNE 18.4 mph 26.5 mph N/A   Overcast
12:53 AM 41.0 °F 33.1 °F 39.9 °F 96% 29.46 in 10.0 mi North 15.0 mph 23.0 mph 0.01 in Rain Light Rain
1:37 AM 37.9 °F 28.5 °F 37.0 °F 97% 29.43 in 6.0 mi North 17.3 mph 20.7 mph 0.04 in Rain Light Rain
1:53 AM 37.9 °F 29.2 °F 37.0 °F 97% 29.43 in 6.0 mi NNE 15.0 mph 19.6 mph 0.06 in Rain Light Rain
2:18 AM 37.0 °F 31.0 °F 36.0 °F 96% 29.40 in 10.0 mi NE 8.1 mph 25.3 mph 0.00 in Rain Light Rain
2:38 AM 37.0 °F 27.4 °F 36.0 °F 96% 29.39 in 2.0 mi NNE 17.3 mph 28.8 mph 0.06 in Rain Rain
2:53 AM 37.0 °F 28.1 °F 36.0 °F 96% 29.41 in 2.0 mi NNE 15.0 mph - 0.13 in Rain Rain
3:25 AM 37.0 °F 27.4 °F 36.0 °F 96% 29.41 in 4.0 mi North 17.3 mph 23.0 mph 0.06 in Snow Light Snow
3:32 AM 37.0 °F 26.7 °F 35.1 °F 93% 29.40 in 2.0 mi North 19.6 mph 26.5 mph 0.07 in Snow Light Snow
3:41 AM 37.0 °F 28.5 °F 35.1 °F 93% 29.41 in 1.8 mi North 13.8 mph 28.8 mph 0.10 in Snow Light Snow
3:50 AM 35.6 °F 25.9 °F 35.6 °F 100% 29.42 in 2.0 mi North 16.1 mph 25.3 mph 0.12 in Snow Light Snow
4:07 AM 36.0 °F 26.0 °F 34.0 °F 93% 29.42 in 2.5 mi North 17.3 mph 28.8 mph 0.02 in Snow Light Snow
4:16 AM 36.0 °F 26.0 °F 34.0 °F 93% 29.43 in 3.0 mi North 17.3 mph 26.5 mph 0.02 in Snow Light Snow
4:28 AM 36.0 °F 26.0 °F 34.0 °F 93% 29.44 in 2.5 mi North 17.3 mph 35.7 mph 0.02 in Snow Light Snow
4:53 AM 37.0 °F 28.1 °F 35.1 °F 93% 29.49 in 2.5 mi North 15.0 mph 25.3 mph 0.04 in Snow Light Snow
5:01 AM 37.0 °F 27.7 °F 36.0 °F 96% 29.49 in 5.0 mi NNW 16.1 mph 21.9 mph 0.00 in   Overcast
5:16 AM 37.0 °F 28.5 °F 36.0 °F 96% 29.51 in 4.0 mi NNW 13.8 mph - 0.01 in   Overcast
5:35 AM 37.9 °F 30.0 °F 36.0 °F 93% 29.53 in 4.0 mi NNW 12.7 mph - 0.01 in Rain Light Rain
5:45 AM 37.9 °F 29.6 °F 37.0 °F 97% 29.54 in 5.0 mi NW 13.8 mph 19.6 mph 0.01 in Rain Light Rain
5:53 AM 37.9 °F 29.2 °F 37.0 °F 97% 29.56 in 4.0 mi NNW 15.0 mph 23.0 mph 0.01 in   Overcast
6:08 AM 37.9 °F 28.2 °F 35.1 °F 89% 29.55 in 7.0 mi NNW 18.4 mph 27.6 mph 0.01 in   Overcast
6:38 AM 37.0 °F 27.4 °F 33.1 °F 86% 29.58 in 10.0 mi NNW 17.3 mph 26.5 mph 0.01 in   Overcast
7:53 AM 37.0 °F 28.1 °F 33.1 °F 86% 29.68 in 10.0 mi North 15.0 mph - N/A   Overcast
8:53 AM 37.9 °F 29.2 °F 33.1 °F 83% 29.73 in 10.0 mi NNW 15.0 mph 25.3 mph N/A   Overcast
9:53 AM 39.0 °F 29.0 °F 30.9 °F 73% 29.76 in 10.0 mi North 20.7 mph 29.9 mph N/A   Overcast
10:53 AM 39.0 °F 31.0 °F 30.0 °F 70% 29.82 in 10.0 mi NNW 13.8 mph 24.2 mph N/A   Overcast
11:27 AM 37.9 °F 30.0 °F 28.9 °F 70% 29.82 in 10.0 mi North 12.7 mph 24.2 mph N/A   Overcast
11:53 AM 37.0 °F 28.1 °F 30.0 °F 76% 29.85 in 10.0 mi NW 15.0 mph 20.7 mph N/A   Overcast
1:53 PM 37.0 °F 27.4 °F 28.9 °F 73% 29.86 in 9.0 mi NNW 17.3 mph 23.0 mph 0.00 in Snow Light Snow
2:53 PM 34.0 °F 23.4 °F 28.9 °F 82% 29.89 in 7.0 mi NNW 17.3 mph 26.5 mph 0.00 in Snow Light Snow
3:53 PM 34.0 °F 23.8 °F 30.0 °F 85% 29.89 in 7.0 mi NNW 16.1 mph 19.6 mph 0.00 in Snow Light Snow
3:56 PM 34.0 °F 24.2 °F 28.9 °F 82% 29.88 in 3.0 mi NW 15.0 mph 24.2 mph 0.00 in Snow Light Snow
4:05 PM 34.0 °F 24.2 °F 28.9 °F 82% 29.87 in 3.0 mi NNW 15.0 mph - 0.00 in Snow Light Snow
4:11 PM 33.1 °F 23.0 °F 28.9 °F 85% 29.87 in 0.8 mi NNW 15.0 mph - 0.00 in Snow Light Snow
4:34 PM 32.0 °F 22.5 °F 28.9 °F 88% 29.88 in 0.5 mi NNW 12.7 mph - 0.01 in Fog , Snow Snow
4:53 PM 32.0 °F 23.0 °F 28.9 °F 88% 29.91 in 0.5 mi NNW 11.5 mph - 0.01 in Fog , Snow Light Snow
5:09 PM 32.0 °F 22.5 °F 28.9 °F 88% 29.89 in 0.8 mi NNW 12.7 mph - 0.01 in Snow Light Snow
5:16 PM 32.0 °F 23.6 °F 28.9 °F 88% 29.89 in 0.8 mi NNW 10.4 mph - 0.01 in Snow Light Snow
5:53 PM 30.9 °F 21.2 °F 28.9 °F 92% 29.93 in 0.8 mi NNW 12.7 mph - 0.02 in Snow Light Snow
6:09 PM 32.0 °F 23.6 °F 30.0 °F 92% 29.92 in 0.8 mi NNW 10.4 mph 18.4 mph 0.00 in Snow Light Snow
6:53 PM 30.9 °F 22.8 °F 28.9 °F 92% 29.95 in 0.8 mi NNW 9.2 mph - 0.01 in Snow Light Snow
7:53 PM 30.9 °F 22.2 °F 28.0 °F 89% 29.98 in 1.0 mi NNW 10.4 mph - 0.01 in Snow Light Snow
8:53 PM 30.0 °F 21.7 °F 28.0 °F 92% 30.00 in 1.0 mi NNW 9.2 mph - 0.01 in Snow Light Snow
9:00 PM 30.0 °F 22.4 °F 28.0 °F 92% 29.97 in 1.5 mi NW 8.1 mph - 0.00 in Snow Light Snow
9:15 PM 30.0 °F 21.7 °F 28.0 °F 92% 29.97 in 2.5 mi NNW 9.2 mph - 0.00 in Snow Light Snow
9:22 PM 30.0 °F 21.7 °F 28.0 °F 92% 29.97 in 3.0 mi NNW 9.2 mph - 0.00 in Snow Light Snow
9:39 PM 30.0 °F 20.0 °F 27.0 °F 88% 29.97 in 3.0 mi NNW 12.7 mph - 0.00 in Snow Light Snow
9:43 PM 30.0 °F 20.5 °F 27.0 °F 88% 29.97 in 2.5 mi NNW 11.5 mph - 0.00 in Snow Light Snow
9:53 PM 30.0 °F 21.1 °F 28.0 °F 92% 30.00 in 2.0 mi NNW 10.4 mph - 0.00 in Snow Light Snow
10:04 PM 30.0 °F 20.5 °F 27.0 °F 88% 29.97 in 3.0 mi North 11.5 mph - 0.01 in Snow Light Snow
10:53 PM 30.0 °F 21.1 °F 27.0 °F 88% 29.99 in 6.0 mi NNW 10.4 mph - 0.01 in Snow Light Snow
11:53 PM 28.9 °F 19.8 °F 25.0 °F 85% 30.01 in 9.0 mi NNW 10.4 mph - 0.00 in Snow Light Snow